This is the latest recevied weather packets stored in our database for station/object AB0MB-WX1. If no packets are shown the sender has not sent any weather packets the latest 10 day(s).
| Time | Temp. | Humidity | Pressure | Rain* | Wind** | Luminosity | Snow |
|---|---|---|---|---|---|---|---|
| 1777359030 | 10.56° C | 77% | 1015.8 hPa | 0 mm | - | - | - |
| 1777357846 | 10.56° C | 81% | 1016.2 hPa | 0 mm | - | - | - |
| 1777357234 | 11.11° C | 81% | 1016 hPa | 0 mm | - | - | - |
| 1777356633 | 11.11° C | 79% | 1015.9 hPa | 0 mm | - | - | - |
| 1777356049 | 11.67° C | 79% | 1015.6 hPa | 0 mm | - | - | - |
| 1777354844 | 12.22° C | 79% | 1015.5 hPa | 0 mm | - | - | - |
| 1777354237 | 12.22° C | 80% | 1015.4 hPa | 0 mm | - | - | - |
| 1777353639 | 12.22° C | 79% | 1015.2 hPa | 0 mm | - | - | - |
| 1777353031 | 12.22° C | 78% | 1015.2 hPa | 0 mm | - | - | - |
| 1777352470 | 12.22° C | 77% | 1015 hPa | 0 mm | - | - | - |
| 1777351842 | 12.78° C | 78% | 1015.2 hPa | 0 mm | - | - | - |
| 1777351248 | 12.78° C | 81% | 1014.9 hPa | 0 mm | - | - | - |
| 1777350639 | 12.78° C | 81% | 1014.9 hPa | 0.25 mm | - | - | - |
| 1777350048 | 12.78° C | 81% | 1014.9 hPa | 0.25 mm | - | - | - |
| 1777349436 | 12.78° C | 79% | 1014.8 hPa | 0.25 mm | - | - | - |
| 1777348847 | 13.33° C | 78% | 1015 hPa | 0.25 mm | - | - | - |
| 1777348238 | 13.33° C | 79% | 1014.8 hPa | 0.25 mm | - | - | - |
| 1777347632 | 13.33° C | 80% | 1014.6 hPa | 0.25 mm | - | - | - |
| 1777347044 | 13.89° C | 78% | 1014.3 hPa | 0 mm | - | - | - |
| 1777346436 | 13.89° C | 82% | 1014.1 hPa | 0 mm | - | - | - |
| 1777345846 | 14.44° C | 79% | 1014.1 hPa | 0 mm | - | - | - |
| 1777345229 | 14.44° C | 76% | 1014 hPa | 0 mm | - | - | - |
| 1777344645 | 15° C | 79% | 1013.8 hPa | 0 mm | - | - | - |
| 1777344032 | 15.56° C | 80% | 1013.5 hPa | 0 mm | - | - | - |
| 1777343432 | 15.56° C | 76% | 1013.4 hPa | 0.25 mm | - | - | - |
* Rain latest hour (hover to see other rain measurements)
** Current wind speed in m/s (hover to see current wind gust speed)